• In Uzbekistan
  • List of Countries
  • For 7 days
  • Water Temperature
  • Satellite Maps
  • Weather Map
  • Weather Widgets
  • user-avatar
    Login

    Hourly Weather Raivka

    Today, 19 September, Wednesday

    Time Temperature Precipitation Wind Pressure Humidity
    00:00 +16°C° 0 mm 3 mps 753 mmHg 72%
    01:00 +14°C° 0 mm 3 mps 753 mmHg 76%
    02:00 +14°C° 0 mm 3 mps 753 mmHg 79%
    03:00 +13°C° 0 mm 3 mps 753 mmHg 82%
    04:00 +13°C° 0 mm 3 mps 753 mmHg 85%
    05:00 +13°C° 0 mm 2 mps 753 mmHg 88%
    06:00 +15°C° 0 mm 2 mps 754 mmHg 80%
    07:00 +17°C° 0 mm 3 mps 754 mmHg 72%
    08:00 +18°C° 0 mm 3 mps 754 mmHg 64%
    09:00 +20°C° 0 mm 3 mps 754 mmHg 57%
    10:00 +22°C° 0 mm 4 mps 754 mmHg 50%
    11:00 +23°C° 0 mm 4 mps 754 mmHg 44%
    12:00 +25°C° 0 mm 4 mps 754 mmHg 42%
    13:00 +26°C° 0 mm 4 mps 753 mmHg 41%
    14:00 +26°C° 0 mm 4 mps 753 mmHg 40%
    15:00 +25°C° 0 mm 4 mps 753 mmHg 43%
    16:00 +25°C° 0 mm 3 mps 753 mmHg 47%
    17:00 +24°C° 0 mm 2 mps 753 mmHg 50%
    18:00 +21°C° 0 mm 2 mps 753 mmHg 54%
    19:00 +20°C° 0 mm 2 mps 753 mmHg 57%
    20:00 +19°C° 0 mm 2 mps 753 mmHg 61%
    21:00 +18°C° 0 mm 2 mps 753 mmHg 62%
    22:00 +18°C° 0 mm 2 mps 753 mmHg 64%
    23:00 +17°C° 0 mm 2 mps 753 mmHg 65%

    Tomorrow, 20 September, Thursday

    Time Temperature Precipitation Wind Pressure Humidity
    00:00 +17°C° 0 mm 2 mps 753 mmHg 67%
    01:00 +17°C° 0 mm 2 mps 753 mmHg 69%
    02:00 +16°C° 0 mm 2 mps 754 mmHg 70%
    03:00 +16°C° 0 mm 2 mps 753 mmHg 73%
    04:00 +16°C° 0 mm 2 mps 753 mmHg 75%
    05:00 +15°C° 0 mm 2 mps 753 mmHg 78%
    06:00 +17°C° 0 mm 2 mps 753 mmHg 72%
    07:00 +19°C° 0 mm 3 mps 753 mmHg 66%
    08:00 +21°C° 0 mm 3 mps 754 mmHg 61%
    09:00 +24°C° 0 mm 3 mps 753 mmHg 54%
    10:00 +25°C° 0 mm 4 mps 753 mmHg 48%
    11:00 +27°C° 0 mm 4 mps 753 mmHg 42%
    12:00 +28°C° 0 mm 4 mps 753 mmHg 40%
    13:00 +28°C° 0 mm 4 mps 752 mmHg 38%
    14:00 +29°C° 0 mm 4 mps 752 mmHg 37%
    15:00 +27°C° 0 mm 4 mps 752 mmHg 40%
    16:00 +26°C° 0 mm 3 mps 752 mmHg 44%
    17:00 +25°C° 0 mm 2 mps 752 mmHg 47%
    18:00 +24°C° 0 mm 2 mps 752 mmHg 52%
    19:00 +23°C° 0 mm 2 mps 752 mmHg 56%
    20:00 +20°C° 0 mm 2 mps 752 mmHg 60%
    21:00 +20°C° 0 mm 2 mps 752 mmHg 63%
    22:00 +19°C° 0 mm 2 mps 752 mmHg 66%
    23:00 +20°C° 0 mm 1 mps 752 mmHg 69%

    Day after tomorrow, 21 September, Friday

    Time Temperature Precipitation Wind Pressure Humidity
    00:00 +19°C° 0 mm 1 mps 752 mmHg 72%
    01:00 +19°C° 0 mm 1 mps 752 mmHg 75%
    02:00 +18°C° 0 mm 1 mps 752 mmHg 78%
    03:00 +18°C° 0 mm 1 mps 753 mmHg 80%
    04:00 +18°C° 0 mm 1 mps 753 mmHg 83%
    05:00 +16°C° 0 mm 1 mps 753 mmHg 86%
    06:00 +19°C° 0 mm 1 mps 753 mmHg 79%
    07:00 +21°C° 0 mm 1 mps 753 mmHg 73%
    08:00 +21°C° 0 mm 2 mps 754 mmHg 66%
    09:00 +24°C° 0 mm 2 mps 754 mmHg 60%
    10:00 +26°C° 0 mm 2 mps 754 mmHg 54%
    11:00 +27°C° 0 mm 2 mps 754 mmHg 48%
    12:00 +28°C° 0 mm 2 mps 754 mmHg 45%
    13:00 +28°C° 0 mm 2 mps 753 mmHg 42%
    14:00 +29°C° 0 mm 2 mps 753 mmHg 38%
    15:00 +28°C° 0 mm 2 mps 753 mmHg 41%
    16:00 +27°C° 0 mm 2 mps 753 mmHg 43%
    17:00 +26°C° 0 mm 2 mps 753 mmHg 45%
    18:00 +25°C° 0 mm 2 mps 753 mmHg 48%
    19:00 +23°C° 0 mm 2 mps 753 mmHg 51%
    20:00 +21°C° 0 mm 2 mps 753 mmHg 54%
    21:00 +21°C° 0 mm 2 mps 753 mmHg 55%
    22:00 +20°C° 0 mm 2 mps 753 mmHg 56%
    23:00 +19°C° 0 mm 2 mps 753 mmHg 57%

    22 September, Saturday

    Time Temperature Precipitation Wind Pressure Humidity
    00:00 +19°C° 0 mm 2 mps 753 mmHg 58%
    01:00 +18°C° 0 mm 2 mps 753 mmHg 59%
    02:00 +18°C° 0 mm 2 mps 753 mmHg 60%
    03:00 +18°C° 0 mm 2 mps 753 mmHg 62%
    04:00 +17°C° 0 mm 2 mps 753 mmHg 63%
    05:00 +17°C° 0 mm 2 mps 753 mmHg 65%
    06:00 +19°C° 0 mm 2 mps 753 mmHg 60%
    07:00 +20°C° 0 mm 2 mps 753 mmHg 55%
    08:00 +23°C° 0 mm 2 mps 753 mmHg 51%
    09:00 +25°C° 0 mm 2 mps 753 mmHg 46%
    10:00 +27°C° 0 mm 2 mps 753 mmHg 41%
    11:00 +28°C° 0 mm 3 mps 753 mmHg 37%
    12:00 +29°C° 0 mm 2 mps 752 mmHg 34%
    13:00 +29°C° 0 mm 2 mps 752 mmHg 32%
    14:00 +30°C° 0 mm 2 mps 752 mmHg 30%
    15:00 +29°C° 0 mm 2 mps 751 mmHg 33%
    16:00 +28°C° 0 mm 2 mps 751 mmHg 35%
    17:00 +27°C° 0 mm 2 mps 751 mmHg 38%
    18:00 +26°C° 0 mm 2 mps 751 mmHg 40%
    19:00 +24°C° 0 mm 2 mps 751 mmHg 42%
    20:00 +23°C° 0 mm 2 mps 751 mmHg 44%
    21:00 +23°C° 0 mm 2 mps 751 mmHg 44%
    22:00 +23°C° 0 mm 2 mps 751 mmHg 45%
    23:00 +21°C° 0 mm 2 mps 751 mmHg 46%

    23 September, Sunday

    Time Temperature Precipitation Wind Pressure Humidity
    00:00 +21°C° 0 mm 2 mps 751 mmHg 46%
    01:00 +21°C° 0 mm 2 mps 751 mmHg 47%
    02:00 +20°C° 0 mm 2 mps 750 mmHg 48%
    03:00 +20°C° 0 mm 2 mps 750 mmHg 49%
    04:00 +19°C° 0 mm 2 mps 750 mmHg 51%
    05:00 +19°C° 0 mm 2 mps 750 mmHg 53%
    06:00 +20°C° 0 mm 3 mps 749 mmHg 49%
    07:00 +22°C° 0 mm 3 mps 749 mmHg 46%
    08:00 +23°C° 0 mm 4 mps 749 mmHg 42%
    09:00 +26°C° 0 mm 4 mps 749 mmHg 38%
    10:00 +28°C° 0 mm 5 mps 748 mmHg 33%
    11:00 +30°C° 0 mm 5 mps 748 mmHg 29%
    12:00 +30°C° 0 mm 5 mps 747 mmHg 28%
    13:00 +30°C° 0 mm 5 mps 747 mmHg 28%
    14:00 +30°C° 0 mm 5 mps 746 mmHg 27%
    15:00 +29°C° 0 mm 4 mps 746 mmHg 30%
    16:00 +28°C° 0 mm 3 mps 745 mmHg 32%
    17:00 +27°C° 0 mm 3 mps 745 mmHg 34%
    18:00 +26°C° 0.1 mm 3 mps 745 mmHg 37%
    19:00 +25°C° 0.1 mm 3 mps 745 mmHg 40%
    20:00 +24°C° 0.1 mm 3 mps 745 mmHg 43%
    21:00 +21°C° 0.3 mm 3 mps 745 mmHg 51%
    22:00 +20°C° 0.3 mm 3 mps 745 mmHg 58%
    23:00 +19°C° 0.3 mm 3 mps 745 mmHg 66%

    24 September, Monday

    Time Temperature Precipitation Wind Pressure Humidity
    00:00 +19°C° 0.2 mm 3 mps 745 mmHg 70%
    01:00 +18°C° 0.2 mm 3 mps 745 mmHg 73%
    02:00 +18°C° 0.2 mm 2 mps 745 mmHg 77%
    03:00 +17°C° 0 mm 3 mps 745 mmHg 80%
    04:00 +17°C° 0 mm 3 mps 745 mmHg 82%
    05:00 +16°C° 0 mm 3 mps 745 mmHg 85%
    06:00 +17°C° 0 mm 3 mps 746 mmHg 80%
    07:00 +18°C° 0 mm 3 mps 746 mmHg 75%
    08:00 +20°C° 0 mm 3 mps 746 mmHg 70%
    09:00 +21°C° 0 mm 3 mps 746 mmHg 64%
    10:00 +24°C° 0 mm 2 mps 746 mmHg 57%
    11:00 +26°C° 0 mm 2 mps 747 mmHg 51%
    12:00 +27°C° 0 mm 2 mps 747 mmHg 47%
    13:00 +27°C° 0 mm 1 mps 746 mmHg 44%
    14:00 +28°C° 0 mm 1 mps 746 mmHg 41%
    15:00 +27°C° 0 mm 1 mps 746 mmHg 43%
    16:00 +27°C° 0 mm 1 mps 746 mmHg 45%
    17:00 +26°C° 0 mm 1 mps 746 mmHg 47%
    18:00 +25°C° 0 mm 1 mps 747 mmHg 50%
    19:00 +24°C° 0 mm 2 mps 747 mmHg 52%
    20:00 +23°C° 0 mm 2 mps 747 mmHg 55%
    21:00 +21°C° 0 mm 2 mps 747 mmHg 58%
    22:00 +20°C° 0 mm 2 mps 747 mmHg 61%
    23:00 +19°C° 0 mm 2 mps 748 mmHg 65%
    Show more